Weather History for Denver, CO

Change the Weather History Date:

Monday, April 22, 2013

  Actual Average Record
Temperature  
Mean Temperature 35 °F 49 °F  
Max Temperature 49 °F 63 °F 88 °F (1989)
Min Temperature 21 °F 35 °F 21 °F (2013)
Degree Days  
Heating Degree Days 30 16  
Month to date heating degree days 569 410  
Since 1 July heating degree days 5681 5612  
Cooling Degree Days 0 0  
Month to date cooling degree days 0 0  
Year to date cooling degree days 0 0  
Moisture  
Dew Point 23 °F    
Average Humidity 67    
Maximum Humidity 92    
Minimum Humidity 42    
Precipitation  
Precipitation 0.36 in 0.06 in 1.32 in (1999)
Month to date precipitation 1.73 1.15  
Year to date precipitation 4.28 2.85  
Snow  
Snow 2.90 in - - ()
Month to date snowfall 18.6  
Since 1 July snowfall 73.2  
Snow Depth 0.00 in    
Sea Level Pressure  
Sea Level Pressure 30.12 in    
Wind  
Wind Speed 15 mph (NNE)    
Max Wind Speed 33 mph    
Max Gust Speed 39 mph    
Visibility 3 miles    
Events Fog , Snow    
T = Trace of Precipitation, MM = Missing Value Source: NWS Daily Summary

Daily Weather History Graph

Daily Weather History Graph

Search for Another Location

Airport:

Trip Planner

Search our weather history database for the weather conditions in past years. The results will help you decide how hot, cold, wet, or windy it might be!

Date:

Astronomy

Apr. 22, 2013 Rise Set
Actual Time 6:10 AM MDT 7:44 PM MDT
Civil Twilight 5:41 AM MDT 8:12 PM MDT
Nautical Twilight 5:07 AM MDT 8:47 PM MDT
Astronomical Twilight 4:31 AM MDT 9:23 PM MDT
Moon 4:36 PM MDT (4/22) 4:06 AM MDT (4/22)
Length of Visible Light 14h 30m
Length of Day
13h 33m
Waxing Gibbous, 88% of the Moon is Illuminated
Apr 22
Waxing Gibbous
Apr 25
Full
May 2
Last Quarter
May 9
New
May 17
First Quarter

Hourly Weather History & Observations

Time (MDT) Temp. Windchill Dew Point Humidity Pressure Visibility Wind Dir Wind Speed Gust Speed Precip Events Conditions
12:53 AM 43.0 °F 37.7 °F 30.0 °F 60% 29.84 in 10.0 mi South 9.2 mph - N/A   Mostly Cloudy
1:53 AM 44.1 °F 38.1 °F 28.9 °F 55% 29.85 in 10.0 mi WNW 11.5 mph - N/A   Mostly Cloudy
2:12 AM 44.6 °F 38.1 °F 28.4 °F 53% 29.95 in 10.0 mi NW 13.8 mph - N/A   Mostly Cloudy
2:53 AM 46.9 °F - 25.0 °F 42% 29.81 in 10.0 mi West 4.6 mph - N/A   Mostly Cloudy
3:53 AM 37.0 °F 29.8 °F 27.0 °F 67% 29.80 in 10.0 mi SSE 10.4 mph - N/A   Mostly Cloudy
4:53 AM 42.1 °F 36.1 °F 27.0 °F 55% 29.80 in 10.0 mi SW 10.4 mph - N/A   Mostly Cloudy
5:24 AM 42.8 °F 33.8 °F 26.6 °F 53% 29.95 in 10.0 mi WNW 21.9 mph 27.6 mph N/A   Mostly Cloudy
5:53 AM 41.0 °F 32.5 °F 33.1 °F 73% 29.82 in 10.0 mi NNE 17.3 mph - N/A   Overcast
6:53 AM 39.9 °F 34.5 °F 34.0 °F 79% 29.86 in 10.0 mi NE 8.1 mph - N/A   Mostly Cloudy
7:53 AM 41.0 °F 36.4 °F 34.0 °F 76% 29.88 in 10.0 mi South 6.9 mph - N/A   Mostly Cloudy
8:53 AM 45.0 °F 41.8 °F 35.1 °F 68% 29.88 in 10.0 mi SSE 5.8 mph - N/A   Mostly Cloudy
9:53 AM 46.0 °F 38.0 °F 35.1 °F 66% 29.91 in 10.0 mi NNE 21.9 mph 27.6 mph N/A   Mostly Cloudy
10:53 AM 37.9 °F 26.1 °F 28.0 °F 68% 29.99 in 10.0 mi NNE 27.6 mph 38.0 mph N/A   Overcast
11:26 AM 33.8 °F 20.5 °F 26.6 °F 75% 30.05 in 5.0 mi NNE 27.6 mph 38.0 mph 0.00 in Snow Light Snow
11:32 AM 33.8 °F 20.5 °F 26.6 °F 75% 30.05 in 3.0 mi North 27.6 mph 38.0 mph 0.00 in Snow Light Snow
11:40 AM 33.8 °F 20.8 °F 26.6 °F 75% 30.05 in 2.0 mi NNE 26.5 mph 35.7 mph 0.00 in Snow Light Snow
11:53 AM 32.0 °F 18.6 °F 27.0 °F 82% 30.04 in 0.8 mi NNE 25.3 mph 34.5 mph 0.00 in Snow Light Snow
12:01 PM 30.2 °F 16.8 °F 26.6 °F 86% 30.06 in 0.5 mi NNE 23.0 mph 31.1 mph 0.00 in Fog , Snow Snow
12:23 PM 30.2 °F 21.3 °F 26.6 °F 86% 30.10 in 1.0 mi NNE 10.4 mph 24.2 mph 0.00 in Snow Light Snow
12:45 PM 30.2 °F 18.9 °F 26.6 °F 86% 30.09 in 0.8 mi North 16.1 mph - 0.02 in Snow Light Snow
12:53 PM 30.0 °F 17.5 °F 26.1 °F 85% 30.09 in 0.8 mi North 19.6 mph - 0.03 in Snow Light Snow
1:00 PM 30.2 °F 17.4 °F 24.8 °F 80% 30.10 in 0.8 mi North 20.7 mph 26.5 mph 0.01 in Snow Light Snow
1:17 PM 30.2 °F 17.1 °F 24.8 °F 80% 30.10 in 0.8 mi North 21.9 mph - 0.01 in Snow Light Snow
1:53 PM 27.0 °F 13.9 °F 21.9 °F 81% 30.14 in 0.8 mi North 18.4 mph - 0.02 in Snow Light Snow
2:04 PM 28.4 °F 17.5 °F 23.0 °F 80% 30.14 in 0.8 mi North 13.8 mph - 0.00 in Snow Light Snow
2:13 PM 28.4 °F 16.6 °F 23.0 °F 80% 30.14 in 0.8 mi North 16.1 mph - 0.00 in Snow Light Snow
2:53 PM 28.0 °F 15.3 °F 23.0 °F 81% 30.14 in 0.8 mi NNE 18.4 mph - 0.02 in Snow Light Snow
3:01 PM 28.4 °F 15.1 °F 21.2 °F 74% 30.15 in 2.0 mi NNE 20.7 mph 26.5 mph 0.00 in Snow Light Snow
3:09 PM 28.4 °F 15.4 °F 21.2 °F 74% 30.16 in 2.0 mi NE 19.6 mph - 0.00 in Snow Light Snow
3:37 PM 28.4 °F 18.5 °F 21.2 °F 74% 30.16 in 2.0 mi NE 11.5 mph - 0.01 in Snow Light Snow
3:53 PM 28.0 °F 16.1 °F 21.9 °F 78% 30.18 in 2.0 mi NNE 16.1 mph - 0.01 in Snow Light Snow
4:25 PM 26.6 °F 13.4 °F 21.2 °F 80% 30.15 in 1.5 mi NNE 18.4 mph - 0.00 in Snow Light Snow
4:34 PM 26.6 °F 13.8 °F 21.2 °F 80% 30.15 in 0.8 mi NNE 17.3 mph - 0.00 in Snow Light Snow
4:53 PM 27.0 °F 14.3 °F 21.0 °F 78% 30.17 in 1.0 mi NNE 17.3 mph - 0.00 in Snow Light Snow
5:12 PM 26.6 °F 13.8 °F 21.2 °F 80% 30.15 in 1.0 mi NNE 17.3 mph - 0.00 in Snow Light Snow
5:16 PM 26.6 °F 13.1 °F 21.2 °F 80% 30.16 in 3.0 mi NNE 19.6 mph - 0.00 in Snow Light Snow
5:53 PM 26.1 °F 14.0 °F 19.9 °F 78% 30.22 in 3.0 mi NE 15.0 mph - 0.00 in Snow Light Snow
6:03 PM 26.6 °F 16.2 °F 19.4 °F 74% 30.22 in 0.5 mi NE 11.5 mph - 0.00 in Snow Snow
6:29 PM 24.8 °F 12.4 °F 19.4 °F 80% 30.19 in 0.2 mi NNE 15.0 mph - 0.01 in Snow Heavy Snow
6:53 PM 24.1 °F 11.5 °F 19.9 °F 84% 30.24 in 0.2 mi NNE 15.0 mph - 0.03 in Fog , Snow Heavy Snow
7:04 PM 24.8 °F 12.4 °F 19.4 °F 80% 30.22 in 1.2 mi North 15.0 mph - 0.02 in Snow Light Snow
7:15 PM 24.8 °F 12.9 °F 19.4 °F 80% 30.22 in 1.2 mi NNE 13.8 mph - 0.02 in Snow Light Snow
7:23 PM 24.8 °F 11.9 °F 19.4 °F 80% 30.22 in 2.5 mi NNE 16.1 mph - 0.02 in Snow Light Snow
7:31 PM 24.8 °F 11.9 °F 19.4 °F 80% 30.22 in 0.8 mi North 16.1 mph - 0.02 in Snow Light Snow
7:39 PM 24.8 °F 12.4 °F 19.4 °F 80% 30.23 in 0.5 mi North 15.0 mph - 0.02 in Snow Snow
7:53 PM 23.0 °F 9.2 °F 19.0 °F 85% 30.27 in 0.5 mi North 17.3 mph - 0.03 in Snow Light Snow
8:07 PM 23.0 °F 10.6 °F 19.4 °F 86% 30.27 in 1.2 mi North 13.8 mph - 0.00 in Snow Light Snow
8:24 PM 23.0 °F 11.1 °F 19.4 °F 86% 30.24 in 2.5 mi NNE 12.7 mph - 0.00 in Snow Light Snow
8:34 PM 23.0 °F 12.4 °F 19.4 °F 86% 30.25 in 4.0 mi NNE 10.4 mph - 0.00 in Snow Light Snow
8:45 PM 23.0 °F 12.4 °F 19.4 °F 86% 30.25 in 4.0 mi NNE 10.4 mph - 0.00 in Snow Light Snow
8:53 PM 23.0 °F 13.1 °F 19.0 °F 85% 30.28 in 4.0 mi NNE 9.2 mph - 0.00 in Snow Light Snow
9:04 PM 24.8 °F 14.6 °F 19.4 °F 80% 30.26 in 2.0 mi North 10.4 mph - 0.00 in Snow Light Snow
9:13 PM 23.0 °F 12.4 °F 19.4 °F 86% 30.26 in 1.5 mi North 10.4 mph - 0.00 in Snow Light Snow
9:19 PM 23.0 °F 12.4 °F 19.4 °F 86% 30.27 in 0.8 mi North 10.4 mph - 0.00 in Snow Light Snow
9:40 PM 23.0 °F 13.1 °F 19.4 °F 86% 30.28 in 0.2 mi NNE 9.2 mph - 0.03 in Fog , Snow Heavy Snow
9:53 PM 23.0 °F 17.0 °F 19.0 °F 85% 30.29 in 0.5 mi NNE 4.6 mph - 0.04 in Fog , Snow Snow
9:56 PM 23.0 °F 14.7 °F 19.4 °F 86% 30.28 in 0.2 mi NNE 6.9 mph - 0.02 in Fog , Snow Heavy Snow
10:12 PM 23.0 °F 13.9 °F 19.4 °F 86% 30.28 in 0.2 mi NE 8.1 mph - 0.06 in Fog , Snow Heavy Snow
10:32 PM 21.2 °F 11.7 °F 19.4 °F 93% 30.26 in 0.5 mi NNE 8.1 mph - 0.08 in Fog , Snow Heavy Snow
10:53 PM 21.9 °F 13.4 °F 19.0 °F 89% 30.33 in 0.8 mi North 6.9 mph - 0.13 in Snow Heavy Snow
11:01 PM 21.2 °F 12.6 °F 17.6 °F 86% 30.26 in 0.8 mi NNE 6.9 mph - 0.01 in Snow Snow
11:11 PM 21.2 °F 11.7 °F 17.6 °F 86% 30.24 in 1.0 mi NE 8.1 mph - 0.02 in Snow Snow
11:23 PM 21.2 °F 11.7 °F 17.6 °F 86% 30.25 in 1.2 mi NE 8.1 mph - 0.02 in Snow Light Snow
11:53 PM 21.9 °F 15.7 °F 18.0 °F 85% 30.33 in 1.2 mi ENE 4.6 mph - 0.03 in Snow Light Snow